Location: Newark
(38.8667°N, 6.9667°W)
Time: 22:30:14
(UTC+00:00)

ISS - Pass Details

Date: 31 October 2019
Orbit: 412 x 421 km, 51.6° (Epoch: 23 November)

Event Time Altitude Azimuth Distance (km) Brightness Sun altitude
Exits shadow 05:30:47 15° 343° (NNW) 1,264 -1.6 -16.6°
Drops below altitude 10° 05:32:41 10° 17° (NNE) 1,509 -0.8 -16.2°
Sets 05:35:32 0° 43° (NE) 2,374 0.6 -15.7°
